PRGPO SBRJ-SBSP

Flight info

Callsign PRGPO
Flight time 0h 39m
Altitude 28000
Route NAXOP UZ45 IBDAL
Aircraft C25C/M-SDE2E3FGHRWXY/LB1

Departure

Time 2026-05-07 23:11
Airport Santos Dumont Airport (SBRJ)

Arrival

Time 2026-05-07 23:50
Airport Congonhas–Deputado Freitas Nobre Airport (SBSP)
Time Latitude Longitude Altitude Speed Heading
2026-05-07 22:48 -22.90906 -43.16726 12 ft 0 kts 178°
2026-05-07 23:02 -22.90907 -43.16726 -15 ft 0 kts 164°
2026-05-07 23:03 -22.90908 -43.16721 2 ft 0 kts 92°
2026-05-07 23:05 -22.90905 -43.16714 29 ft 6 kts 70°
2026-05-07 23:06 -22.90879 -43.16649 12 ft 12 kts 65°
2026-05-07 23:06 -22.90856 -43.16566 12 ft 12 kts 65°
2026-05-07 23:06 -22.90780 -43.16543 12 ft 12 kts 354°
2026-05-07 23:06 -22.90699 -43.16549 12 ft 12 kts 356°
2026-05-07 23:07 -22.90601 -43.16555 12 ft 15 kts 357°
2026-05-07 23:07 -22.90522 -43.16556 12 ft 10 kts 15°
2026-05-07 23:07 -22.90500 -43.16503 12 ft 1 kts 87°
2026-05-07 23:07 -22.90500 -43.16502 12 ft 0 kts 86°
2026-05-07 23:08 -22.90500 -43.16500 12 ft 0 kts 85°
2026-05-07 23:09 -22.90499 -43.16486 12 ft 6 kts 85°
2026-05-07 23:09 -22.90493 -43.16408 13 ft 10 kts 82°
2026-05-07 23:10 -22.90478 -43.16335 14 ft 9 kts 97°
2026-05-07 23:10 -22.90527 -43.16319 15 ft 12 kts 176°
2026-05-07 23:10 -22.90879 -43.16298 14 ft 101 kts 176°
2026-05-07 23:10 -22.91890 -43.16213 264 ft 172 kts 175°
2026-05-07 23:11 -22.93061 -43.15838 847 ft 188 kts 147°
2026-05-07 23:11 -22.93965 -43.14800 1741 ft 192 kts 127°
2026-05-07 23:11 -22.94868 -43.13670 2584 ft 210 kts 132°
2026-05-07 23:11 -22.96049 -43.12600 3448 ft 231 kts 139°
2026-05-07 23:12 -22.97280 -43.11404 4426 ft 244 kts 136°
2026-05-07 23:12 -22.98668 -43.10295 5453 ft 260 kts 156°
2026-05-07 23:12 -23.00498 -43.10141 6440 ft 271 kts 189°
2026-05-07 23:12 -23.02207 -43.10989 7515 ft 275 kts 218°
2026-05-07 23:13 -23.03695 -43.12329 8561 ft 280 kts 221°
2026-05-07 23:13 -23.05181 -43.13730 9636 ft 285 kts 221°
2026-05-07 23:13 -23.06714 -43.15122 10625 ft 289 kts 220°
2026-05-07 23:13 -23.08296 -43.16498 11582 ft 294 kts 218°
2026-05-07 23:14 -23.09912 -43.17879 12513 ft 298 kts 219°
2026-05-07 23:14 -23.11544 -43.19295 13410 ft 302 kts 219°
2026-05-07 23:14 -23.13189 -43.20735 14266 ft 305 kts 219°
2026-05-07 23:14 -23.14849 -43.22182 15094 ft 307 kts 218°
2026-05-07 23:15 -23.16521 -43.23640 15925 ft 309 kts 218°
2026-05-07 23:15 -23.18208 -43.25108 16734 ft 312 kts 218°
2026-05-07 23:15 -23.19906 -43.26589 17538 ft 314 kts 218°
2026-05-07 23:15 -23.21616 -43.28082 18330 ft 316 kts 218°
2026-05-07 23:16 -23.23337 -43.29584 19019 ft 318 kts 218°
2026-05-07 23:16 -23.25070 -43.31097 19690 ft 321 kts 218°
2026-05-07 23:16 -23.26816 -43.32621 20396 ft 323 kts 219°
2026-05-07 23:16 -23.28572 -43.34155 21097 ft 325 kts 219°
2026-05-07 23:17 -23.30341 -43.35702 21800 ft 327 kts 219°
2026-05-07 23:17 -23.32116 -43.37264 22487 ft 330 kts 221°
2026-05-07 23:17 -23.33535 -43.39212 23176 ft 331 kts 242°
2026-05-07 23:17 -23.34312 -43.41574 23815 ft 334 kts 255°
2026-05-07 23:18 -23.34893 -43.44033 24377 ft 337 kts 255°
2026-05-07 23:18 -23.35449 -43.46523 24960 ft 340 kts 255°
2026-05-07 23:18 -23.36030 -43.49025 25524 ft 343 kts 254°
2026-05-07 23:18 -23.36631 -43.51550 26085 ft 346 kts 254°
2026-05-07 23:19 -23.37232 -43.54098 26653 ft 349 kts 254°
2026-05-07 23:19 -23.37832 -43.56668 27226 ft 351 kts 254°
2026-05-07 23:19 -23.38433 -43.59253 27792 ft 354 kts 254°
2026-05-07 23:19 -23.39053 -43.61894 27981 ft 367 kts 254°
2026-05-07 23:20 -23.39697 -43.64648 27989 ft 383 kts 254°
2026-05-07 23:20 -23.40139 -43.66530 27994 ft 392 kts 254°
2026-05-07 23:20 -23.40817 -43.69455 27991 ft 404 kts 254°
2026-05-07 23:20 -23.41519 -43.72463 27994 ft 414 kts 254°
2026-05-07 23:21 -23.42232 -43.75534 27994 ft 423 kts 254°
2026-05-07 23:21 -23.42960 -43.78661 27992 ft 429 kts 254°
2026-05-07 23:21 -23.43698 -43.81836 27991 ft 435 kts 254°
2026-05-07 23:21 -23.44441 -43.85046 27993 ft 439 kts 254°
2026-05-07 23:22 -23.45439 -43.89344 27987 ft 444 kts 254°
2026-05-07 23:22 -23.45949 -43.91553 27986 ft 446 kts 254°
2026-05-07 23:22 -23.46710 -43.94832 27986 ft 448 kts 254°
2026-05-07 23:22 -23.47468 -43.98128 27984 ft 448 kts 254°
2026-05-07 23:23 -23.48229 -44.01423 27985 ft 449 kts 254°
2026-05-07 23:23 -23.48990 -44.04717 27985 ft 449 kts 254°
2026-05-07 23:23 -23.49750 -44.08018 27984 ft 449 kts 254°
2026-05-07 23:23 -23.50509 -44.11314 27983 ft 449 kts 254°
2026-05-07 23:24 -23.51267 -44.14614 27983 ft 449 kts 254°
2026-05-07 23:24 -23.52027 -44.17915 27982 ft 449 kts 254°
2026-05-07 23:24 -23.52782 -44.21213 27979 ft 449 kts 254°
2026-05-07 23:24 -23.53540 -44.24513 27979 ft 449 kts 254°
2026-05-07 23:25 -23.54284 -44.27768 27980 ft 449 kts 254°
2026-05-07 23:25 -23.55050 -44.31112 27978 ft 449 kts 255°
2026-05-07 23:25 -23.55805 -44.34414 27976 ft 449 kts 254°
2026-05-07 23:25 -23.56557 -44.37711 27976 ft 449 kts 255°
2026-05-07 23:26 -23.57311 -44.41012 27977 ft 449 kts 254°
2026-05-07 23:26 -23.58052 -44.44273 27977 ft 449 kts 255°
2026-05-07 23:26 -23.58804 -44.47569 27976 ft 449 kts 255°
2026-05-07 23:26 -23.59554 -44.50873 27975 ft 449 kts 255°
2026-05-07 23:27 -23.61054 -44.57478 27976 ft 449 kts 255°
2026-05-07 23:27 -23.61801 -44.60779 27974 ft 449 kts 255°
2026-05-07 23:27 -23.62550 -44.64079 27974 ft 448 kts 255°
2026-05-07 23:28 -23.63295 -44.67379 27973 ft 448 kts 255°
2026-05-07 23:28 -23.64043 -44.70682 27972 ft 448 kts 255°
2026-05-07 23:28 -23.64785 -44.73980 27972 ft 448 kts 255°
2026-05-07 23:28 -23.65530 -44.77278 27969 ft 448 kts 255°
2026-05-07 23:29 -23.66271 -44.80575 27968 ft 447 kts 255°
2026-05-07 23:29 -23.67013 -44.83867 27971 ft 447 kts 255°
2026-05-07 23:29 -23.67753 -44.87159 27969 ft 447 kts 255°
2026-05-07 23:29 -23.68492 -44.90454 27927 ft 447 kts 255°
2026-05-07 23:30 -23.69231 -44.93745 27407 ft 438 kts 255°
2026-05-07 23:30 -23.69935 -44.96899 26843 ft 419 kts 255°
2026-05-07 23:30 -23.70623 -44.99952 26299 ft 411 kts 255°
2026-05-07 23:30 -23.71299 -45.02981 25757 ft 410 kts 255°
2026-05-07 23:31 -23.71977 -45.06007 25223 ft 410 kts 255°
2026-05-07 23:31 -23.72651 -45.09024 24682 ft 410 kts 255°
2026-05-07 23:31 -23.73281 -45.11826 24182 ft 410 kts 255°
2026-05-07 23:31 -23.73964 -45.14873 23638 ft 410 kts 255°
2026-05-07 23:32 -23.74640 -45.17898 23051 ft 410 kts 256°
2026-05-07 23:32 -23.75314 -45.20909 22512 ft 408 kts 256°
2026-05-07 23:32 -23.75982 -45.23909 21976 ft 406 kts 256°
2026-05-07 23:32 -23.76647 -45.26902 21441 ft 405 kts 256°
2026-05-07 23:33 -23.77304 -45.29893 20908 ft 405 kts 256°
2026-05-07 23:33 -23.77963 -45.32880 20373 ft 405 kts 256°
2026-05-07 23:33 -23.78621 -45.35868 19835 ft 405 kts 256°
2026-05-07 23:33 -23.79282 -45.38859 19304 ft 405 kts 256°
2026-05-07 23:34 -23.79784 -45.41885 18812 ft 405 kts 266°
2026-05-07 23:34 -23.79923 -45.44938 18475 ft 401 kts 267°
2026-05-07 23:34 -23.80085 -45.47965 18110 ft 399 kts 267°
2026-05-07 23:34 -23.80245 -45.50976 17733 ft 396 kts 267°
2026-05-07 23:35 -23.80399 -45.53972 17379 ft 394 kts 268°
2026-05-07 23:35 -23.80549 -45.56908 17032 ft 392 kts 268°
2026-05-07 23:35 -23.80700 -45.59876 16683 ft 390 kts 268°
2026-05-07 23:35 -23.80852 -45.62828 16334 ft 389 kts 268°
2026-05-07 23:36 -23.81002 -45.65777 15985 ft 389 kts 268°
2026-05-07 23:36 -23.81151 -45.68720 15641 ft 388 kts 268°
2026-05-07 23:36 -23.81299 -45.71662 15293 ft 387 kts 268°
2026-05-07 23:36 -23.81448 -45.74595 14950 ft 387 kts 268°
2026-05-07 23:37 -23.81595 -45.77526 14600 ft 387 kts 268°
2026-05-07 23:37 -23.81740 -45.80456 14263 ft 386 kts 268°
2026-05-07 23:37 -23.81886 -45.83383 13909 ft 386 kts 268°
2026-05-07 23:37 -23.82032 -45.86300 13533 ft 381 kts 268°
2026-05-07 23:38 -23.82172 -45.89154 13183 ft 373 kts 269°
2026-05-07 23:38 -23.82311 -45.91951 12847 ft 366 kts 269°
2026-05-07 23:38 -23.82444 -45.94705 12525 ft 360 kts 269°
2026-05-07 23:38 -23.82579 -45.97420 12205 ft 356 kts 269°
2026-05-07 23:39 -23.82707 -46.00108 11888 ft 353 kts 269°
2026-05-07 23:39 -23.82839 -46.02772 11573 ft 350 kts 269°
2026-05-07 23:39 -23.82964 -46.05416 11252 ft 348 kts 269°
2026-05-07 23:39 -23.83093 -46.08048 10950 ft 346 kts 269°
2026-05-07 23:40 -23.83216 -46.10628 10648 ft 327 kts 269°
2026-05-07 23:40 -23.83336 -46.12998 10368 ft 303 kts 270°
2026-05-07 23:40 -23.83440 -46.15244 10099 ft 291 kts 270°
2026-05-07 23:40 -23.83540 -46.17430 9839 ft 286 kts 270°
2026-05-07 23:41 -23.83642 -46.19585 9567 ft 282 kts 269°
2026-05-07 23:41 -23.83805 -46.21706 9316 ft 279 kts 266°
2026-05-07 23:41 -23.83959 -46.23821 9040 ft 280 kts 270°
2026-05-07 23:41 -23.84063 -46.25931 8765 ft 276 kts 269°
2026-05-07 23:42 -23.84204 -46.28005 8513 ft 272 kts 269°
2026-05-07 23:42 -23.84356 -46.30046 8271 ft 267 kts 268°
2026-05-07 23:42 -23.84499 -46.32059 8036 ft 265 kts 269°
2026-05-07 23:42 -23.84638 -46.34060 7788 ft 263 kts 268°
2026-05-07 23:43 -23.84771 -46.36048 7567 ft 263 kts 269°
2026-05-07 23:43 -23.84913 -46.38081 7335 ft 274 kts 269°
2026-05-07 23:43 -23.85057 -46.40183 7096 ft 281 kts 269°
2026-05-07 23:43 -23.85207 -46.42307 6856 ft 280 kts 269°
2026-05-07 23:44 -23.85299 -46.43889 6675 ft 279 kts 273°
2026-05-07 23:44 -23.84856 -46.45875 6430 ft 271 kts 297°
2026-05-07 23:44 -23.83856 -46.47599 6186 ft 268 kts 309°
2026-05-07 23:44 -23.82728 -46.49243 5942 ft 267 kts 310°
2026-05-07 23:45 -23.81615 -46.50829 5723 ft 266 kts 309°
2026-05-07 23:45 -23.81556 -46.50914 5702 ft 266 kts 309°
2026-05-07 23:45 -23.80470 -46.52504 5470 ft 265 kts 309°
2026-05-07 23:45 -23.79315 -46.54060 5321 ft 260 kts 319°
2026-05-07 23:46 -23.77822 -46.55099 5292 ft 251 kts 330°
2026-05-07 23:46 -23.76463 -46.56089 5152 ft 212 kts 328°
2026-05-07 23:46 -23.75300 -46.56900 4979 ft 188 kts 330°
2026-05-07 23:46 -23.74245 -46.57621 4940 ft 171 kts 332°
2026-05-07 23:47 -23.73254 -46.58283 4828 ft 166 kts 332°
2026-05-07 23:47 -23.72273 -46.58951 4628 ft 167 kts 331°
2026-05-07 23:47 -23.71294 -46.59641 4418 ft 168 kts 331°
2026-05-07 23:47 -23.70311 -46.60327 4207 ft 166 kts 331°
2026-05-07 23:48 -23.69336 -46.61001 3993 ft 165 kts 332°
2026-05-07 23:48 -23.68382 -46.61668 3786 ft 162 kts 332°
2026-05-07 23:48 -23.67419 -46.62333 3586 ft 166 kts 332°
2026-05-07 23:48 -23.66504 -46.62981 3375 ft 144 kts 333°
2026-05-07 23:49 -23.65705 -46.63527 3191 ft 128 kts 333°
2026-05-07 23:49 -23.64992 -46.64043 3033 ft 120 kts 333°
2026-05-07 23:49 -23.64276 -46.64544 2900 ft 124 kts 334°
2026-05-07 23:49 -23.63557 -46.65027 2700 ft 119 kts 333°
2026-05-07 23:50 -23.62887 -46.65489 2614 ft 106 kts 333°
2026-05-07 23:50 -23.62431 -46.65810 2603 ft 50 kts 326°
2026-05-07 23:50 -23.62191 -46.65958 2595 ft 23 kts 14°
2026-05-07 23:50 -23.62151 -46.65852 2595 ft 14 kts 88°
2026-05-07 23:51 -23.62135 -46.65755 2596 ft 12 kts 65°
2026-05-07 23:51 -23.62118 -46.65674 2596 ft 8 kts 118°
2026-05-07 23:51 -23.62120 -46.65628 2597 ft 10 kts 116°
2026-05-07 23:51 -23.62142 -46.65599 2597 ft 0 kts 150°